Location: Heidgraben
(53.7081°N, 9.6576°E)
Time: 09:57:21
(UTC+00:00)

Cosmos 2278 Rocket - Pass Details

Date: 05 July 2020
Orbit: 841 x 846 km, 71.0° (Epoch: 05 August)

Event Time Altitude Azimuth Distance (km) Brightness Sun altitude
Rises 22:43:30 0° 322° (NW) 3,418 6.5 -13.1°
Reaches altitude 10° 22:46:20 10° 309° (NW) 2,477 5.4 -13.1°
Maximum altitude 22:50:50 25° 257° (WSW) 1,656 3.7 -13.2°
Enters shadow 22:54:45 12° 208° (SSW) 2,298 4.0 -13.3°
